Location: Acheville
(50.3840°N, 2.8827°E)
Time: 11:05:18
(UTC+00:00)

GENESIS II - Pass Details

Date: 24 October 2021
Orbit: 494 x 529 km, 64.5° (Epoch: 30 November)

Event Time Altitude Azimuth Distance (km) Brightness Sun altitude
Rises 17:42:44 0° 321° (NW) 2,632 8.3 -10.8°
Reaches altitude 10° 17:44:58 10° 326° (NNW) 1,748 7.3 -11.2°
Maximum altitude 17:48:46 49° 43° (NE) 674 4.5 -11.8°
Enters shadow 17:51:48 15° 116° (ESE) 1,448 5.9 -12.3°
